MOZHAYETS

Satellite information

Favourite Embed

Satellite Type and Status

PAYLOADIN ORBIT

Key statistics

Satellite MOZHAYETS at a glance.

Uptime

8358

Days in orbit

Revolutions

≈ 14.6

Per day

Orbit

SSO

Sun Synchronous Orbit

Inclination

98.5

Latest

Satellite identification and parameters

Extended collection of information and parameters for MOZHAYETS.

Object identification

Identified? True

Debris? False

Object name: MOZHAYETS

International designator: 2002-054B

Object number (NORAD): 27560

Object ID (CCSDS): 27560

Country: COMMONWEALTH OF INDEPENDENT STATES (CIS)

Current information (Y/N): Y

RCS size: LARGE

Orbital parameters

Period: 98.536 minutes

Inclination: 98.4646 deg

SMA: 7066.807 km

Apoapsis: 716.549 km

Periapsis: 660.796 km

RAAN: 135.3696 deg

Eccentricy: 0.00394473

Argument of periapsis: 55.9285 deg

Mean anomaly: 103.4159 deg

Mean motion: 14.61395868 rev/day

Mean motion (dot): 0.00001037 rev/day2

B* drag term: 0.00021761379 1/REarth

Two-line elements (TLE)

Creation date: Oct. 16, 2025, 2:37 a.m.

Reference frame: TEME

Reference center: EARTH

Epoch: Oct. 16, 2025, 12:23 a.m. UTC

TLE line 0: 0 MOZHAYETS

TLE line 1: 1 27560U 02054B 25289.01644197 .00001037 00000-0 21761-3 0 9990

TLE line 2: 2 27560 98.4646 135.3696 0039447 55.9285 103.4159 14.61395868216602

Live tracking on map

Real-time ground track for satellite MOZHAYETS.

In-orbit conjunctions

There are no conjunctions computed for MOZHAYETS, at the moment. Check back to stay up to date, as we update our databases every day.

Go to all conjunctions

Associated space launch

ALSAT 1 was an Algerian imaging minisatellite. The 90-kg satellite was the first part of an international Disaster Monitoring System (DMS) for alerting natural/man-made disasters.

MOZHAYETS was lifted into orbit during the mission ‘Kosmos-3M | AlSat-1’, on board a Kosmos-3M space rocket.

The launch took place on Nov. 28, 2002, 6:07 a.m. from 132/1 (132L).

For more information about the launch, click the button.

Launch to space Kosmos-3M | AlSat-1
Kosmos-3M | AlSat-1

Agency: N/A

Status: Launch Successful

Launch date: Nov. 28, 2002, 6:07 a.m. UTC

Rocket: Kosmos-3M

Launch pad: 132/1 (132L)

Location: Plesetsk Cosmodrome, Russian Federation

...

Latest news about this satellite

There are no fresh news available about this satellite. Check back as we update our databases every day.


Newsletter sign-up

Weekly statistics, charts and insights to help you stay on top of the space industry.